Dewpoint
18 17 17 18 17 18 18 18 19 18 18 18 19 19 20 20 22 22 21 21 21 20 21 21 21 21 22 22 23 23 23 21 22 21 21 22 22 22 22 22 21 21
17 17 19 19 19 20 18 18 18 18 18 17 18 18 19 20 21 21 21 21 21 20 19 20 20 20 21 21 22 22 22 22 21 24 22 22 22 22 22 22 22 22
18 18 18 18 17 18 18 18 18 17 17 17 17 18 19 20 20 20 20 19 19 18 19 20 20 21 21 22 22 22 22 21 21 22 22 22 22 22 22 22 22 22
18 18 18 18 18 18 18 18 18 17 17 18 17 18 19 21 19 19 19 21 18 19 19 20 20 21 21 22 22 22 22 22 22 22 22 22 23 23 22 22 23 22
18 18 18 18 18 19 18 17 17 17 17 17 17 18 19 19 18 18 18 18 18 19 20 20 21 21 22 22 22 22 22 22 21 21 22 22 22 22 22 22 22 22
17 18 19 19 18 18 17 17 17 17 16 16 16 18 18 17 17 17 18 17 18 19 20 20 21 21 22 22 22 21 21 21 21 21 21 21 22 21 22 22 21 21
17 17 18 18 18 18 17 16 17 17 16 15 17 17 17 16 16 17 17 18 18 19 19 20 20 20 21 21 21 21 20 20 20 20 20 20 19 19 19 18 18 17
16 17 17 18 17 17 16 15 16 17 16 16 15 16 16 16 16 17 17 18 18 19 19 19 19 19 20 19 19 19 19 19 18 18 17 17 16 16 15 15 14 14
17 16 17 17 16 16 15 15 15 16 16 15 15 16 16 16 16 16 17 17 18 18 18 18 18 18 18 18 18 18 17 17 17 16 15 14 14 13 13 13 12 13
17 16 16 16 16 15 15 14 15 15 17 15 15 15 15 16 16 16 16 17 17 18 17 18 18 18 18 18 17 17 16 16 14 13 12 12 12 11 11 11 12 11
17 16 16 16 15 15 14 14 14 14 15 14 15 15 15 16 16 16 16 16 17 17 17 17 17 17 17 16 15 15 14 13 12 12 11 11 10 10 13 12 11 11
17 16 16 15 15 15 14 14 15 15 15 15 15 15 15 16 16 16 16 16 16 16 17 16 16 16 16 15 14 13 12 11 11 11 10 9 9 9 9 10 10 10
16 16 16 15 15 14 14 14 15 15 15 15 16 16 16 16 16 16 16 15 16 16 16 15 15 14 14 13 12 11 10 10 9 9 9 8 8 8 8 9 9 9
17 16 15 15 14 14 15 15 16 16 16 16 17 16 16 16 16 15 15 15 14 14 13 13 12 11 10 10 9 9 9 9 9 9 8 7 7 7 7 7 8 9
16 16 15 16 16 15 16 16 17 17 17 17 17 16 16 16 15 14 14 12 11 11 10 9 9 8 8 8 8 8 8 8 8 9 7 7 7 6 7 7 8 9
16 16 15 16 16 16 16 17 17 17 17 17 16 15 15 14 13 13 12 11 9 8 8 8 8 7 12 16 14 9 8 9 10 10 9 7 7 8 10 10 11 12
16 16 15 16 16 17 18 17 17 17 16 16 14 13 13 13 12 11 11 10 9 8 8 7 7 8 16 19 20 19 11 10 10 10 10 9 10 11 12 12 12 13
16 16 17 17 17 18 17 17 16 15 15 14 13 12 12 12 11 11 10 10 9 9 8 8 8 14 19 21 21 22 19 11 12 12 13 13 13 13 13 14 14 13
18 17 18 18 18 17 17 16 15 15 14 13 13 13 12 13 12 11 10 10 9 9 9 9 8 17 20 21 22 22 23 19 15 16 16 16 15 15 14 13 13 14
18 18 18 17 17 16 15 15 14 14 13 13 12 12 12 11 10 11 10 10 9 9 9 9 9 17 21 22 22 22 22 22 19 19 18 17 16 15 15 14 13 11
18 17 17 17 16 15 14 14 13 13 12 11 11 11 10 10 10 10 11 11 11 11 10 10 9 17 20 21 22 22 22 22 19 19 18 18 16 14 12 11 11 11
18 18 17 16 15 14 13 13 13 12 11 10 10 10 10 10 10 11 11 11 11 11 10 10 9 18 19 20 21 22 22 20 20 19 17 15 14 12 12 12 12 11
18 17 16 15 14 13 13 12 12 10 10 10 10 10 10 9 9 10 11 11 12 11 11 10 10 16 18 19 20 22 22 19 18 17 15 15 14 14 12 11 11 11
17 17 15 14 13 12 12 12 11 10 10 10 9 9 8 9 9 9 10 11 11 11 10 10 9 13 18 19 20 21 20 17 17 16 16 15 13 13 14 14 14 18
17 16 15 13 12 12 11 11 10 9 9 9 8 8 8 8 9 8 9 10 11 10 12 10 9 12 16 17 19 20 20 18 17 15 15 14 14 14 13 13 14 16
16 15 14 13 12 12 11 10 9 8 8 8 8 8 8 8 8 7 7 8 9 9 10 9 8 8 12 18 19 20 20 17 16 15 15 14 14 15 15 16 15 13